TimeMST,TemperatureF,Dew PointF,Humidity,Sea Level PressureIn,VisibilityMPH,Wind Direction,Wind SpeedMPH,Gust SpeedMPH,PrecipitationIn,Events,Conditions,WindDirDegrees,DateUTC
12:17 AM,30.0,26.1,85,29.99,10.0,NNW,3.5,-,N/A,,Overcast,340,2014-01-01 07:17:00
12:53 AM,28.9,26.1,89,30.01,7.0,SW,5.8,-,0.00,,Mostly Cloudy,220,2014-01-01 07:53:00
1:08 AM,28.9,25.0,85,29.99,10.0,WNW,3.5,-,N/A,,Mostly Cloudy,290,2014-01-01 08:08:00
1:53 AM,27.0,25.0,92,30.03,9.0,WNW,3.5,-,N/A,,Mostly Cloudy,300,2014-01-01 08:53:00
2:53 AM,25.0,23.0,92,30.06,10.0,Calm,Calm,-,N/A,,Scattered Clouds,0,2014-01-01 09:53:00
3:03 AM,27.0,24.1,89,30.03,10.0,Calm,Calm,-,N/A,,Mostly Cloudy,0,2014-01-01 10:03:00
3:14 AM,26.1,23.0,88,30.03,10.0,West,5.8,-,N/A,,Scattered Clouds,260,2014-01-01 10:14:00
3:43 AM,24.1,21.0,88,30.05,10.0,WSW,4.6,-,N/A,,Mostly Cloudy,240,2014-01-01 10:43:00
3:53 AM,25.0,21.9,88,30.09,10.0,WSW,5.8,-,N/A,,Mostly Cloudy,240,2014-01-01 10:53:00
4:01 AM,25.0,23.0,92,30.06,10.0,West,6.9,-,N/A,,Scattered Clouds,260,2014-01-01 11:01:00
4:53 AM,23.0,18.0,81,30.13,10.0,South,5.8,-,N/A,,Clear,180,2014-01-01 11:53:00
4:56 AM,21.9,19.0,89,30.07,1.8,SSW,5.8,-,N/A,,Partly Cloudy,200,2014-01-01 11:56:00
5:13 AM,23.0,21.9,96,30.08,0.2,SE,8.1,-,N/A,Fog,Light Freezing Fog,130,2014-01-01 12:13:00
5:53 AM,24.1,24.1,100,30.14,0.2,Calm,Calm,-,N/A,Fog,Light Freezing Fog,0,2014-01-01 12:53:00
5:58 AM,24.1,23.0,96,30.08,2.0,SSW,4.6,-,N/A,,Mostly Cloudy,210,2014-01-01 12:58:00
6:01 AM,23.0,21.0,92,30.08,7.0,South,3.5,-,N/A,,Scattered Clouds,190,2014-01-01 13:01:00
6:07 AM,23.0,19.9,88,30.09,1.0,Calm,Calm,-,N/A,,Mist,0,2014-01-01 13:07:00
6:15 AM,21.0,19.9,96,30.09,0.2,NE,4.6,-,N/A,Fog,Light Freezing Fog,50,2014-01-01 13:15:00
6:38 AM,19.9,17.1,89,30.09,1.2,Variable,4.6,-,N/A,,Partly Cloudy,0,2014-01-01 13:38:00
6:46 AM,19.0,18.0,96,30.09,3.0,NNE,4.6,-,N/A,,Partly Cloudy,20,2014-01-01 13:46:00
6:49 AM,19.4,17.6,93,30.09,1.0,Calm,Calm,-,N/A,,Mist,0,2014-01-01 13:49:00
6:53 AM,19.9,17.1,89,30.16,1.0,Calm,Calm,-,N/A,,Mist,0,2014-01-01 13:53:00
6:58 AM,19.0,16.0,88,30.09,4.0,Calm,Calm,-,N/A,,Partly Cloudy,0,2014-01-01 13:58:00
7:53 AM,19.0,15.1,85,30.19,10.0,SE,3.5,-,N/A,,Clear,140,2014-01-01 14:53:00
8:53 AM,23.0,16.0,74,30.23,10.0,WSW,8.1,-,N/A,,Clear,240,2014-01-01 15:53:00
9:53 AM,24.1,15.1,69,30.28,10.0,SE,5.8,-,N/A,,Clear,140,2014-01-01 16:53:00
10:53 AM,30.9,21.0,67,30.31,10.0,East,9.2,-,N/A,,Clear,100,2014-01-01 17:53:00
11:53 AM,30.0,24.1,79,30.32,10.0,SSE,5.8,-,N/A,,Mostly Cloudy,150,2014-01-01 18:53:00
12:53 PM,30.9,25.0,79,30.32,10.0,ESE,12.7,-,N/A,,Overcast,110,2014-01-01 19:53:00
1:23 PM,32.0,25.0,75,30.23,10.0,ESE,10.4,-,N/A,,Scattered Clouds,110,2014-01-01 20:23:00
1:53 PM,32.0,25.0,75,30.31,10.0,ESE,6.9,-,N/A,,Partly Cloudy,120,2014-01-01 20:53:00
2:53 PM,33.1,25.0,72,30.32,10.0,East,8.1,-,N/A,,Clear,100,2014-01-01 21:53:00
3:53 PM,28.9,23.0,78,30.34,10.0,SSE,6.9,-,N/A,,Clear,150,2014-01-01 22:53:00
4:53 PM,26.1,19.9,78,30.34,10.0,SSE,3.5,-,N/A,,Clear,160,2014-01-01 23:53:00
5:53 PM,23.0,16.0,74,30.34,10.0,West,5.8,-,N/A,,Clear,260,2014-01-02 00:53:00
6:53 PM,23.0,15.1,72,30.35,10.0,Calm,Calm,-,N/A,,Clear,0,2014-01-02 01:53:00
7:53 PM,23.0,12.9,65,30.36,10.0,SW,4.6,-,N/A,,Clear,230,2014-01-02 02:53:00
8:53 PM,19.9,17.1,89,30.35,10.0,SE,4.6,-,N/A,,Clear,130,2014-01-02 03:53:00
9:53 PM,17.1,12.0,81,30.37,9.0,NW,6.9,-,N/A,,Clear,320,2014-01-02 04:53:00
10:53 PM,17.1,10.9,77,30.34,10.0,WNW,8.1,-,N/A,,Clear,300,2014-01-02 05:53:00
11:53 PM,19.0,12.0,74,30.32,10.0,Calm,Calm,-,N/A,,Clear,0,2014-01-02 06:53:00